Weather History for KHZE - March, 2013

Change the Weather History Date:

Tuesday, March 12, 2013

  Actual Average (KN60) Record (KN60)
Temperature  
Mean Temperature 16 °F -  
Max Temperature 24 °F 26 °F 64 °F (2015)
Min Temperature 8 °F 9 °F -16 °F (2009)
Degree Days  
Heating Degree Days 49    
Moisture  
Dew Point 11 °F    
Average Humidity 73    
Maximum Humidity 86    
Minimum Humidity 50    
Precipitation  
Precipitation 1.63 in - - ()
Sea Level Pressure  
Sea Level Pressure 30.23 in    
Wind  
Wind Speed 18 mph (NW)    
Max Wind Speed 28 mph    
Max Gust Speed 38 mph    
Visibility 8 miles    
Events Snow    
Averages and records for this station are not official NWS values.
T = Trace of Precipitation, MM = Missing Value Source: NWS Daily Summary

Daily Weather History Graph

Daily Weather History Graph

Search for Another Location

Airport or City:

Trip Planner

Search our weather history database for the weather conditions in past years. The results will help you decide how hot, cold, wet, or windy it might be!

Date:

Astronomy

Mar. 12, 2013 Rise Set
Actual Time 8:04 AM CDT 7:48 PM CDT
Civil Twilight 7:34 AM CDT 8:18 PM CDT
Nautical Twilight 6:58 AM CDT 8:54 PM CDT
Astronomical Twilight 6:22 AM CDT 9:30 PM CDT
Moon 8:06 AM CDT (3/12) 9:13 PM CDT (3/12)
Length of Visible Light 12h 44m
Length of Day
11h 43m
New Moon, 1% of the Moon is Illuminated
Mar 12
New Moon
Mar 19
First Quarter
Mar 27
Full
Apr 2
Last Quarter
Apr 10
New

Hourly Weather History & Observations

Time (CDT) Temp. Windchill Dew Point Humidity Pressure Visibility Wind Dir Wind Speed Gust Speed Precip Events Conditions
12:15 AM 24.8 °F 10.0 °F 19.4 °F 80% 30.01 in 8.0 mi NW 21.9 mph 34.5 mph 0.03 in Snow Light Snow
12:35 AM 24.8 °F 9.0 °F 19.4 °F 80% 30.01 in 10.0 mi NW 25.3 mph 35.7 mph 0.03 in Snow Light Snow
12:55 AM 23.0 °F 7.6 °F 19.4 °F 86% 30.03 in 9.0 mi NW 21.9 mph 33.4 mph 0.04 in Snow Light Snow
1:15 AM 23.0 °F 6.3 °F 19.4 °F 86% 30.03 in 10.0 mi NW 26.5 mph 38.0 mph N/A Snow Light Snow
1:35 AM 23.0 °F 7.2 °F 17.6 °F 80% 30.03 in 4.0 mi NW 23.0 mph 35.7 mph 0.04 in Snow Light Snow
1:55 AM 23.0 °F 6.3 °F 17.6 °F 80% 30.04 in 3.0 mi NW 26.5 mph 34.5 mph 0.11 in Snow Light Snow
2:15 AM 23.0 °F 6.9 °F 17.6 °F 80% 30.05 in 2.5 mi WNW 24.2 mph 31.1 mph 0.11 in Snow Light Snow
2:35 AM 21.2 °F 3.5 °F 17.6 °F 86% 30.06 in 3.0 mi NW 27.6 mph 33.4 mph 0.22 in Snow Light Snow
2:55 AM 23.0 °F 8.3 °F 17.6 °F 80% 30.07 in 4.0 mi WNW 19.6 mph 34.5 mph 0.29 in Snow Light Snow
3:15 AM 21.2 °F 6.0 °F 15.8 °F 80% 30.08 in 9.0 mi NW 19.6 mph 29.9 mph 0.02 in Snow Light Snow
3:55 AM 19.4 °F 4.5 °F 15.8 °F 86% 30.10 in 5.0 mi WNW 17.3 mph 27.6 mph 0.14 in Snow Light Snow
4:15 AM 19.4 °F 3.6 °F 15.8 °F 86% 30.11 in 3.0 mi NW 19.6 mph 25.3 mph 0.04 in Snow Light Snow
4:35 AM 19.4 °F 5.0 °F 15.8 °F 86% 30.12 in 2.5 mi NW 16.1 mph 27.6 mph 0.24 in Snow Light Snow
4:55 AM 19.4 °F 5.5 °F 15.8 °F 86% 30.13 in 6.0 mi NW 15.0 mph 25.3 mph 0.32 in Snow Light Snow
5:15 AM 19.4 °F 4.1 °F 15.8 °F 86% 30.14 in 4.0 mi NW 18.4 mph 25.3 mph 0.05 in Snow Light Snow
5:35 AM 19.4 °F 5.0 °F 15.8 °F 86% 30.15 in 3.0 mi NW 16.1 mph 26.5 mph 0.14 in Snow Light Snow
5:55 AM 19.4 °F 3.2 °F 14.0 °F 80% 30.16 in 5.0 mi NW 20.7 mph 27.6 mph 0.21 in Snow Light Snow
6:15 AM 19.4 °F 4.1 °F 14.0 °F 80% 30.17 in 8.0 mi NW 18.4 mph 26.5 mph 0.01 in Snow Light Snow
6:35 AM 19.4 °F 2.8 °F 14.0 °F 80% 30.18 in 9.0 mi NW 21.9 mph - 0.02 in Snow Light Snow
6:55 AM 19.4 °F 4.1 °F 14.0 °F 80% 30.19 in 5.0 mi NW 18.4 mph 25.3 mph 0.05 in Snow Light Snow
7:15 AM 17.6 °F 1.7 °F 14.0 °F 86% 30.19 in 6.0 mi NW 18.4 mph 26.5 mph 0.03 in Snow Light Snow
7:35 AM 17.6 °F 2.2 °F 12.2 °F 79% 30.20 in 3.0 mi NW 17.3 mph 29.9 mph 0.15 in Snow Light Snow
7:55 AM 17.6 °F 0.5 °F 12.2 °F 79% 30.21 in 4.0 mi NW 21.9 mph 26.5 mph 0.23 in Snow Light Snow
8:15 AM 17.6 °F 0.5 °F 12.2 °F 79% 30.21 in 2.5 mi NW 21.9 mph 28.8 mph 0.06 in Snow Light Snow
8:35 AM 15.8 °F -0.2 °F 10.4 °F 79% 30.22 in 5.0 mi NW 17.3 mph 31.1 mph 0.12 in Snow Light Snow
8:55 AM 15.8 °F -1.1 °F 8.6 °F 73% 30.23 in 4.0 mi NW 19.6 mph 26.5 mph 0.17 in Snow Light Snow
9:15 AM 15.8 °F -0.6 °F 10.4 °F 79% 30.24 in 4.0 mi NW 18.4 mph - 0.03 in Snow Light Snow
9:35 AM 15.8 °F -0.6 °F 8.6 °F 73% 30.25 in 5.0 mi NW 18.4 mph 26.5 mph 0.06 in Snow Light Snow
9:55 AM 14.0 °F -2.5 °F 6.8 °F 73% 30.25 in 10.0 mi NW 17.3 mph - 0.07 in Snow Light Snow
10:15 AM 15.8 °F -1.1 °F 8.6 °F 73% 30.26 in 10.0 mi NW 19.6 mph 25.3 mph N/A   Mostly Cloudy
10:35 AM 15.8 °F -2.3 °F 8.6 °F 73% 30.27 in 10.0 mi NNW 23.0 mph 28.8 mph N/A   Partly Cloudy
10:55 AM 17.6 °F -0.3 °F 8.6 °F 68% 30.28 in 10.0 mi NW 24.2 mph 31.1 mph N/A   Clear
11:15 AM 17.6 °F 1.3 °F 8.6 °F 68% 30.28 in 10.0 mi NNW 19.6 mph 27.6 mph N/A   Clear
11:35 AM 17.6 °F 0.1 °F 8.6 °F 68% 30.28 in 10.0 mi NNW 23.0 mph 28.8 mph N/A   Scattered Clouds
11:55 AM 19.4 °F 3.2 °F 8.6 °F 63% 30.29 in 10.0 mi NNW 20.7 mph 27.6 mph N/A   Mostly Cloudy
12:15 PM 19.4 °F 3.6 °F 8.6 °F 63% 30.30 in 10.0 mi NNW 19.6 mph 24.2 mph N/A   Mostly Cloudy
12:35 PM 19.4 °F 3.6 °F 10.4 °F 68% 30.30 in 10.0 mi NNW 19.6 mph 25.3 mph N/A   Overcast
12:55 PM 19.4 °F 5.5 °F 10.4 °F 68% 30.30 in 10.0 mi NNW 15.0 mph - N/A   Overcast
1:15 PM 21.2 °F 6.8 °F 12.2 °F 68% 30.30 in 10.0 mi NW 17.3 mph 26.5 mph N/A   Mostly Cloudy
1:35 PM 19.4 °F 4.1 °F 10.4 °F 68% 30.31 in 10.0 mi NNW 18.4 mph 24.2 mph N/A   Mostly Cloudy
1:55 PM 21.2 °F 8.9 °F 10.4 °F 63% 30.31 in 10.0 mi NNW 12.7 mph - N/A   Mostly Cloudy
2:15 PM 21.2 °F 6.8 °F 10.4 °F 63% 30.30 in 10.0 mi NNW 17.3 mph 23.0 mph N/A   Scattered Clouds
2:35 PM 23.0 °F 8.7 °F 10.4 °F 59% 30.30 in 10.0 mi NNW 18.4 mph 24.2 mph N/A   Partly Cloudy
2:55 PM 23.0 °F 8.0 °F 8.6 °F 54% 30.30 in 10.0 mi NW 20.7 mph 25.3 mph N/A   Clear
3:15 PM 23.0 °F 9.6 °F 10.4 °F 59% 30.30 in 10.0 mi NNW 16.1 mph 24.2 mph N/A   Clear
3:35 PM 21.2 °F 7.8 °F 8.6 °F 58% 30.30 in 10.0 mi NNW 15.0 mph 25.3 mph N/A   Clear
3:55 PM 23.0 °F 10.6 °F 8.6 °F 54% 30.30 in 10.0 mi NW 13.8 mph - N/A   Clear
4:15 PM 23.0 °F 9.6 °F 8.6 °F 54% 30.30 in 10.0 mi NNW 16.1 mph 21.9 mph N/A   Clear
4:35 PM 23.0 °F 10.1 °F 8.6 °F 54% 30.30 in 10.0 mi NNW 15.0 mph - N/A   Clear
4:55 PM 23.0 °F 11.1 °F 8.6 °F 54% 30.30 in 10.0 mi NNW 12.7 mph 19.6 mph N/A   Clear
5:15 PM 23.0 °F 9.6 °F 6.8 °F 50% 30.30 in 10.0 mi NW 16.1 mph - N/A   Clear
5:35 PM 23.0 °F 11.1 °F 8.6 °F 54% 30.30 in 10.0 mi NNW 12.7 mph - N/A   Clear
5:55 PM 23.0 °F 11.7 °F 8.6 °F 54% 30.29 in 10.0 mi North 11.5 mph - N/A   Clear
6:15 PM 23.0 °F 11.1 °F 6.8 °F 50% 30.29 in 10.0 mi NNW 12.7 mph - N/A   Clear
6:35 PM 23.0 °F 12.4 °F 6.8 °F 50% 30.29 in 10.0 mi NNW 10.4 mph - N/A   Clear
6:55 PM 21.2 °F 10.9 °F 8.6 °F 58% 30.29 in 10.0 mi North 9.2 mph - N/A   Clear
7:15 PM 19.4 °F 9.5 °F 8.6 °F 63% 30.28 in 10.0 mi North 8.1 mph - N/A   Clear
7:35 PM 19.4 °F 11.5 °F 8.6 °F 63% 30.28 in 10.0 mi North 5.8 mph - N/A   Clear
7:55 PM 17.6 °F 12.3 °F 8.6 °F 68% 30.28 in 10.0 mi North 3.5 mph - N/A   Clear
8:15 PM 17.6 °F - 8.6 °F 68% 30.28 in 10.0 mi Calm Calm - N/A   Clear
8:35 PM 14.0 °F 8.2 °F 8.6 °F 79% 30.28 in 10.0 mi East 3.5 mph - N/A   Clear
8:55 PM 12.2 °F - 8.6 °F 85% 30.28 in 10.0 mi Calm Calm - N/A   Clear
9:15 PM 12.2 °F - 8.6 °F 85% 30.28 in 10.0 mi Calm Calm - N/A   Clear
9:35 PM 12.2 °F - 8.6 °F 85% 30.28 in 10.0 mi Calm Calm - N/A   Clear
9:55 PM 10.4 °F 4.0 °F 5.0 °F 79% 30.27 in 10.0 mi East 3.5 mph - N/A   Clear
10:15 PM 8.6 °F - 5.0 °F 85% 30.28 in 10.0 mi Calm Calm - N/A   Partly Cloudy
10:35 PM 10.4 °F - 5.0 °F 79% 30.28 in 10.0 mi Calm Calm - N/A   Scattered Clouds
10:55 PM 12.2 °F - 6.8 °F 79% 30.28 in 10.0 mi Calm Calm - N/A   Scattered Clouds
11:15 PM 8.6 °F - 5.0 °F 85% 30.28 in 10.0 mi Calm Calm - N/A   Mostly Cloudy
11:35 PM 10.4 °F - 5.0 °F 79% 30.28 in 10.0 mi Calm Calm - N/A   Mostly Cloudy
11:55 PM 8.6 °F 2.0 °F 5.0 °F 85% 30.28 in 10.0 mi South 3.5 mph - N/A   Mostly Cloudy